This is the latest recevied weather packets stored in our database for station/object W8BS. If no packets are shown the sender has not sent any weather packets the latest 10 day(s).
| Time | Temp. | Humidity | Pressure | Rain* | Wind** | Luminosity | Snow |
|---|---|---|---|---|---|---|---|
| 1778090608 | 13.89° C | 99% | 1009.5 hPa | 1.27 mm | - | 107 W/m² | - |
| 1778090304 | 13.89° C | 99% | 1009.5 hPa | 0 mm | - | 167 W/m² | - |
| 1778090001 | 13.89° C | 99% | 1009.4 hPa | 1.78 mm | - | 190 W/m² | - |
| 1778089698 | 13.89° C | 99% | 1009.4 hPa | 3.05 mm | - | 88 W/m² | - |
| 1778089396 | 13.89° C | 99% | 1009.4 hPa | 1.27 mm | - | 107 W/m² | - |
| 1778089093 | 13.89° C | 99% | 1009.5 hPa | 0 mm | - | 112 W/m² | - |
| 1778088790 | 13.89° C | 99% | 1009.5 hPa | 0 mm | - | 124 W/m² | - |
| 1778088487 | 13.89° C | 99% | 1009.6 hPa | 0 mm | - | 78 W/m² | - |
| 1778088183 | 13.89° C | 99% | 1009.5 hPa | 0 mm | - | 147 W/m² | - |
| 1778087881 | 13.89° C | 99% | 1009.5 hPa | 0 mm | - | 277 W/m² | - |
| 1778087578 | 13.89° C | 99% | 1009.4 hPa | 1.78 mm | - | 161 W/m² | - |
| 1778087275 | 13.89° C | 99% | 1009.5 hPa | 3.05 mm | - | 95 W/m² | - |
| 1778086971 | 13.89° C | 99% | 1009.6 hPa | 1.27 mm | - | 63 W/m² | - |
| 1778086670 | 13.89° C | 99% | 1009.9 hPa | 1.78 mm | - | 65 W/m² | - |
| 1778086367 | 13.89° C | 99% | 1009.6 hPa | 1.78 mm | - | 59 W/m² | - |
| 1778086064 | 13.89° C | 99% | 1009.5 hPa | 0 mm | - | 69 W/m² | - |
| 1778085761 | 13.89° C | 99% | 1009.6 hPa | 0 mm | - | 142 W/m² | - |
| 1778085458 | 13.89° C | 99% | 1009.6 hPa | 0 mm | - | 91 W/m² | - |
| 1778085152 | 13.89° C | 99% | 1009.4 hPa | 0 mm | - | 86 W/m² | - |
| 1778084849 | 13.89° C | 99% | 1009.5 hPa | 0 mm | - | 75 W/m² | - |
| 1778084547 | 13.89° C | 99% | 1009.3 hPa | 1.27 mm | - | 57 W/m² | - |
| 1778084244 | 13.89° C | 99% | 1009.3 hPa | 1.27 mm | - | 76 W/m² | - |
| 1778083941 | 14.44° C | 99% | 1009.2 hPa | 0 mm | - | 52 W/m² | - |
| 1778083639 | 13.89° C | 99% | 1009.3 hPa | 0 mm | - | 121 W/m² | - |
| 1778083335 | 14.44° C | 99% | 1009.4 hPa | 0 mm | - | 64 W/m² | - |
* Rain latest hour (hover to see other rain measurements)
** Current wind speed in m/s (hover to see current wind gust speed)